THORAD AGENA D DEB, 4945

Orbit data source: Space-Track

THORAD AGENA D DEB, 4945 is space debris in SSO originally from a launch on Wed, 08 Apr 1970 UTC launched from the Air Force Western Test Range (AFWTR). Debris objects in space refer to the collection of defunct objects orbiting the Earth. Examples of debris include non-operational satellites, rocket bodies, and fragments generated from explosions, collisions, or faulty payload assembly.

Loading next visibility...
Identifier
4945, 1970-025GF
Orbit
SSO
Country
Flag of USUS
Related business
Manufacturer
Unknown
Mission
Spacecraft
Bus & Motor
Unknown
Mass
Unknown
Launch date (UTC)
1970-04-08 (56 years ago)
Launch vehicle
Unknown
Launch site
Air Force Western Test Range (AFWTR)
Object type
Payload
Rocket body
Debris
Shape & HBR
Unknown shape, 0.1 m
Radar Cross Section
Small (<0.1 m²)

Expand to show TLE details & history
Last TLE update: 13 hours ago

TLE from 13 hours ago
0 THORAD AGENA D DEB
1 04945U 70025GF  25351.57045512  .00001834  00000-0  13686-2 0  9993
2 04945  99.8787  25.6398 0090855 239.6826 119.5321 13.94343296769871
Epoch: 2025-12-17T13:41Z
TLE epoch observation values (Epoch: 2025-12-17T13:41:27.322Z)
Latitude
-0.00007°
Longitude
93.83755°
Altitude
949.402 km
Speed
7.36 km/s
True Right ascension
01h 42m 33s
True Declination
0° 00' 00"
Sunlit
Object was in daylight at epoch
Visualization orbit readout
Latitude
Unknown
Longitude
Unknown
Altitude
Unknown
Speed
Unknown
Apparent Right ascension
Unknown
Apparent Declination
Unknown
Sunlit
N/A
Visualization observer readout
Local Sidereal Time
01:10:43
Azimuth
Unknown
Elevation
Unknown
Doppler factor
Unknown
Orbital elements
Apogee altitude
976.924 km
Perigee altitude
844.478 km
Semi-major axis
7,288.838 km
Eccentricity
0.00909
Inclination
99.8787°
RAAN
25.6398°
Arg. of periapsis
239.6826°
True anomaly
120.43288°
Mean anomaly
119.5321°
Eccentric anomaly
119.983°
Mean motion
3.48783 °/min
Orbital period
103.22 mins
BSTAR
0.0013686
Loading maneuver chart data...
Computing Atmospheric mass density...

Documentation

Showing up to 5 results
|